Location: Campo Claro
(10.4907°N, 66.8285°W)
Time: 04:49:57
(UTC+00:00)

Cosmos 1553 Rocket - Pass Details

Date: 10 July 2022
Orbit: 941 x 1009 km, 82.9° (Epoch: 14 August)

Event Time Altitude Azimuth Distance (km) Brightness Sun altitude
Rises 23:43:25 0° 207° (SSW) 3,697 7.1 -12.0°
Reaches altitude 10° 23:46:18 10° 219° (SW) 2,757 6.5 -12.6°
Maximum altitude 23:51:35 28° 276° (W) 1,778 6.2 -13.8°
Drops below altitude 10° 23:56:56 10° 333° (NNW) 2,777 7.2 -15.0°
Sets 23:59:52 0° 344° (NNW) 3,729 7.7 -15.6°
